Weather History for PHKO - November, 2012

Change the Weather History Date:

Monday, November 26, 2012

  Actual Average (PHTO) Record (PHTO)
Temperature  
Mean Temperature 76 °F 73 °F  
Max Temperature 82 °F 80 °F 86 °F (2005)
Min Temperature 71 °F 67 °F 62 °F (1989)
Degree Days  
Heating Degree Days 0 0  
Month to date heating degree days 0  
Since 1 July heating degree days 0  
Cooling Degree Days 12 8  
Month to date cooling degree days 239  
Year to date cooling degree days 2974  
Growing Degree Days 26 (Base 50)    
Moisture  
Dew Point 61 °F    
Average Humidity 58    
Maximum Humidity 73    
Minimum Humidity 44    
Precipitation  
Precipitation 0.00 in 0.50 in 4.03 in (1967)
Month to date precipitation 13.60  
Year to date precipitation 113.25  
Snow  
Snow 0.00 in - - ()
Month to date snowfall  
Since 1 July snowfall  
Since 1 September snowfall  
Snow Depth -    
Sea Level Pressure  
Sea Level Pressure 29.96 in    
Wind  
Wind Speed 8 mph (North)    
Max Wind Speed 17 mph    
Max Gust Speed -    
Visibility 10 miles    
Events      
T = Trace of Precipitation, MM = Missing Value Source: NWS Daily Summary

Daily Weather History Graph

Daily Weather History Graph

Search for Another Location

Airport or City:

Trip Planner

Search our weather history database for the weather conditions in past years. The results will help you decide how hot, cold, wet, or windy it might be!

Date:

Astronomy

Nov. 26, 2012 Rise Set
Actual Time 6:39 AM HST 5:43 PM HST
Civil Twilight 6:16 AM HST 6:07 PM HST
Nautical Twilight 5:49 AM HST 6:34 PM HST
Astronomical Twilight 5:22 AM HST 7:01 PM HST
Moon 4:37 PM HST (11/26) 5:07 AM HST (11/26)
Length of Visible Light 11h 51m
Length of Day
11h 04m
Waxing Gibbous, 97% of the Moon is Illuminated
Nov 26
Waxing Gibbous
Nov 28
Full
Dec 6
Last Quarter
Dec 12
New
Dec 19
First Quarter

Hourly Weather History & Observations

Time (HST) Temp. Heat Index Dew Point Humidity Pressure Visibility Wind Dir Wind Speed Gust Speed Precip Events Conditions
12:53 AM 75.0 °F - 60.1 °F 60% 29.94 in 10.0 mi ENE 5.8 mph - N/A   Clear
1:53 AM 73.9 °F - 64.9 °F 73% 29.94 in 10.0 mi North 4.6 mph - N/A   Clear
2:53 AM 73.0 °F - 63.0 °F 71% 29.93 in 10.0 mi Calm Calm - N/A   Clear
3:53 AM 71.1 °F - 61.0 °F 70% 29.93 in 10.0 mi East 4.6 mph - N/A   Clear
4:53 AM 71.1 °F - 57.0 °F 61% 29.93 in 10.0 mi North 9.2 mph - N/A   Clear
5:53 AM 73.0 °F - 55.0 °F 53% 29.92 in 10.0 mi North 13.8 mph - N/A   Clear
6:53 AM 72.0 °F - 54.0 °F 53% 29.95 in 10.0 mi NNE 6.9 mph - N/A   Clear
7:53 AM 75.9 °F - 54.0 °F 46% 29.96 in 10.0 mi ENE 8.1 mph - N/A   Clear
8:53 AM 79.0 °F - 55.0 °F 44% 29.98 in 10.0 mi North 12.7 mph - N/A   Clear
9:53 AM 82.0 °F 82.0 °F 57.9 °F 44% 29.99 in 10.0 mi North 9.2 mph - N/A   Clear
10:53 AM 80.1 °F 81.5 °F 63.0 °F 56% 29.99 in 10.0 mi North 13.8 mph - N/A   Mostly Cloudy
11:53 AM 81.0 °F 82.5 °F 64.0 °F 56% 29.96 in 10.0 mi NNW 10.4 mph - N/A   Partly Cloudy
12:53 PM 81.0 °F 82.2 °F 63.0 °F 54% 29.93 in 10.0 mi NW 10.4 mph - N/A   Clear
1:53 PM 80.1 °F 81.2 °F 62.1 °F 54% 29.91 in 10.0 mi NW 8.1 mph - N/A   Mostly Cloudy
2:53 PM 80.1 °F 81.9 °F 64.9 °F 60% 29.91 in 10.0 mi NW 8.1 mph - N/A   Clear
3:53 PM 79.0 °F - 64.0 °F 60% 29.92 in 10.0 mi NW 4.6 mph - N/A   Scattered Clouds
4:53 PM 79.0 °F - 64.9 °F 62% 29.93 in 10.0 mi NW 9.2 mph - N/A   Mostly Cloudy
5:53 PM 78.1 °F - 64.0 °F 62% 29.96 in 10.0 mi NW 10.4 mph - N/A   Overcast
6:53 PM 78.1 °F - 60.1 °F 54% 29.97 in 10.0 mi East 4.6 mph - N/A   Clear
7:53 PM 77.0 °F - 60.1 °F 56% 30.00 in 10.0 mi NNE 13.8 mph - N/A   Clear
8:53 PM 77.0 °F - 60.1 °F 56% 30.00 in 10.0 mi North 17.3 mph - N/A   Clear
9:53 PM 75.9 °F - 60.1 °F 58% 30.00 in 10.0 mi ENE 16.1 mph - N/A   Clear
10:53 PM 75.9 °F - 60.1 °F 58% 30.02 in 10.0 mi SSE 6.9 mph - N/A   Clear
11:53 PM 77.0 °F - 63.0 °F 62% 30.01 in 10.0 mi Calm Calm - N/A   Overcast